Wisconsin Dells, Wisconsin, United States (53965)
Lat: 43.63N, Lon: 89.77W
Wx Zone: WIZ057
Local Info
Past Weather Observations for Saturday, September 24, 2016

NOTE: This archive is for the closest National Weather Service station to Wisconsin Dells. Information may differ from the station used for current weather conditions.

Click here for Long-term Archive

Time Weather Temperature Dewpoint Humidity Pressure Winds Precip Visibility
23:50
Partly Cloudy
61°F / 16°C 59°F / 15°C 94% 30.12 in
(1020 mb)
ESE 5.8 mph
(ESE 9 kph)
- 10SM
23:30
Clear
61°F / 16°C 59°F / 15°C 94% 30.12 in
(1020 mb)
ESE 8.1 mph
(ESE 13 kph)
- 10SM
23:10
Clear
61°F / 16°C 59°F / 15°C 94% 30.12 in
(1020 mb)
ESE 5.8 mph
(ESE 9 kph)
- 10SM
22:50
Partly Cloudy
61°F / 16°C 59°F / 15°C 94% 30.12 in
(1020 mb)
ESE 5.8 mph
(ESE 9 kph)
- 10SM
22:30
Mostly Cloudy
63°F / 17°C 59°F / 15°C 88% 30.12 in
(1020 mb)
SE 8.1 mph
(SE 13 kph)
- 10SM
22:10
Overcast
63°F / 17°C 59°F / 15°C 88% 30.12 in
(1020 mb)
SE 6.9 mph
(SE 11 kph)
- 10SM
21:50
Overcast
63°F / 17°C 61°F / 16°C 94% 30.12 in
(1020 mb)
SE 12.7 mph
(SE 20 kph)
- 7SM
21:30
Overcast
63°F / 17°C 61°F / 16°C 94% 30.12 in
(1020 mb)
ESE 8.1 mph
(ESE 13 kph)
- 7SM
21:10
Mostly Cloudy
61°F / 16°C 59°F / 15°C 94% 30.12 in
(1020 mb)
E 8.1 mph
(E 13 kph)
- 7SM
20:50
Clear
61°F / 16°C 59°F / 15°C 94% 30.12 in
(1020 mb)
E 5.8 mph
(E 9 kph)
- 7SM
20:30
Clear
61°F / 16°C 59°F / 15°C 94% 30.15 in
(1021 mb)
E 5.8 mph
(E 9 kph)
- 7SM
20:10
Clear
63°F / 17°C 59°F / 15°C 88% 30.15 in
(1021 mb)
E 5.8 mph
(E 9 kph)
- 10SM
19:50
Clear
63°F / 17°C 59°F / 15°C 88% 30.15 in
(1021 mb)
E 6.9 mph
(E 11 kph)
- 10SM
19:30
Partly Cloudy
63°F / 17°C 59°F / 15°C 88% 30.12 in
(1020 mb)
E 6.9 mph
(E 11 kph)
- 10SM
19:10
Mostly Cloudy
63°F / 17°C 59°F / 15°C 88% 30.12 in
(1020 mb)
E 6.9 mph
(E 11 kph)
- 10SM
18:50
Partly Cloudy
64°F / 18°C 61°F / 16°C 88% 30.15 in
(1021 mb)
E 4.6 mph
(E 7 kph)
- 10SM
18:30
Clear
64°F / 18°C 59°F / 15°C 83% 30.12 in
(1020 mb)
E 6.9 mph
(E 11 kph)
- 10SM
18:10
Clear
64°F / 18°C 59°F / 15°C 83% 30.12 in
(1020 mb)
ESE 5.8 mph
(ESE 9 kph)
- 10SM
17:50
Clear
66°F / 19°C 61°F / 16°C 83% 30.12 in
(1020 mb)
ESE 5.8 mph
(ESE 9 kph)
- 10SM
17:30
Clear
66°F / 19°C 61°F / 16°C 83% 30.12 in
(1020 mb)
ESE 5.8 mph
(ESE 9 kph)
- 10SM
17:10
Clear
68°F / 20°C 61°F / 16°C 78% 30.12 in
(1020 mb)
E 4.6 mph
(E 7 kph)
- 10SM
16:50
Partly Cloudy
68°F / 20°C 59°F / 15°C 73% 30.12 in
(1020 mb)
E 5.8 mph
(E 9 kph)
- 10SM
16:30
Mostly Cloudy
68°F / 20°C 59°F / 15°C 73% 30.12 in
(1020 mb)
E 5.8 mph
(E 9 kph)
- 10SM
16:10
Partly Cloudy
68°F / 20°C 59°F / 15°C 73% 30.12 in
(1020 mb)
E 6.9 mph
(E 11 kph)
- 10SM
15:50
Mostly Cloudy
70°F / 21°C 59°F / 15°C 69% 30.12 in
(1020 mb)
E 8.1 mph
(E 13 kph)
- 10SM
15:30
Mostly Cloudy
70°F / 21°C 59°F / 15°C 69% 30.12 in
(1020 mb)
E 6.9 mph
(E 11 kph)
- 10SM
15:10
Mostly Cloudy
68°F / 20°C 59°F / 15°C 73% 30.12 in
(1020 mb)
E 9.2 mph
(E 15 kph)
- 10SM
14:50
Mostly Cloudy
70°F / 21°C 59°F / 15°C 69% 30.15 in
(1021 mb)
E 8.1 mph
(E 13 kph)
- 10SM
14:30
Mostly Cloudy
68°F / 20°C 59°F / 15°C 73% 30.15 in
(1021 mb)
SE 10.4 mph
(SE 17 kph)
- 10SM
14:10
Mostly Cloudy
68°F / 20°C 59°F / 15°C 73% 30.15 in
(1021 mb)
SE 9.2 mph
(SE 15 kph)
- 10SM
13:50
Overcast
66°F / 19°C 59°F / 15°C 78% 30.15 in
(1021 mb)
E 8.1 mph
(E 13 kph)
- 10SM
13:30
Overcast
66°F / 19°C 59°F / 15°C 78% 30.18 in
(1022 mb)
E 8.1 mph
(E 13 kph)
- 10SM
13:10
Overcast
64°F / 18°C 59°F / 15°C 83% 30.18 in
(1022 mb)
E 6.9 mph
(E 11 kph)
- 10SM
12:50
Overcast
64°F / 18°C 59°F / 15°C 83% 30.18 in
(1022 mb)
E 6.9 mph
(E 11 kph)
- 10SM
12:30
Overcast
64°F / 18°C 59°F / 15°C 83% 30.18 in
(1022 mb)
E 6.9 mph
(E 11 kph)
- 10SM
12:10
Overcast
63°F / 17°C 59°F / 15°C 88% 30.21 in
(1023 mb)
E 6.9 mph
(E 11 kph)
- 10SM
11:50
Overcast
63°F / 17°C 59°F / 15°C 88% 30.21 in
(1023 mb)
E 10.4 mph
(E 17 kph)
- 10SM
11:30
Overcast
63°F / 17°C 59°F / 15°C 88% 30.21 in
(1023 mb)
E 8.1 mph
(E 13 kph)
- 10SM
11:10
Overcast
63°F / 17°C 61°F / 16°C 94% 30.21 in
(1023 mb)
E 9.2 mph
(E 15 kph)
- 10SM
10:50
Overcast
61°F / 16°C 59°F / 15°C 94% 30.21 in
(1023 mb)
E 5.8 mph
(E 9 kph)
- 10SM
10:30
Overcast
61°F / 16°C 59°F / 15°C 94% 30.21 in
(1023 mb)
E 5.8 mph
(E 9 kph)
- 10SM
10:10
Overcast
61°F / 16°C 59°F / 15°C 94% 30.21 in
(1023 mb)
E 6.9 mph
(E 11 kph)
- 10SM
09:50
Overcast
61°F / 16°C 59°F / 15°C 94% 30.21 in
(1023 mb)
E 5.8 mph
(E 9 kph)
- 10SM
09:30
Overcast
61°F / 16°C 59°F / 15°C 94% 30.21 in
(1023 mb)
E 6.9 mph
(E 11 kph)
- 10SM
09:10
Overcast
61°F / 16°C 59°F / 15°C 94% 30.21 in
(1023 mb)
E 6.9 mph
(E 11 kph)
- 10SM
08:50
Overcast
61°F / 16°C 59°F / 15°C 94% 30.21 in
(1023 mb)
E 5.8 mph
(E 9 kph)
- 10SM
08:30
Overcast
61°F / 16°C 59°F / 15°C 94% 30.21 in
(1023 mb)
E 5.8 mph
(E 9 kph)
- 10SM
08:10
Overcast
61°F / 16°C 59°F / 15°C 94% 30.21 in
(1023 mb)
E 6.9 mph
(E 11 kph)
- 10SM
07:50
Overcast
Rain
61°F / 16°C 59°F / 15°C 94% 30.21 in
(1023 mb)
E 5.8 mph
(E 9 kph)
- 7SM
07:30
Overcast
Fog And Mist
61°F / 16°C 59°F / 15°C 94% 30.21 in
(1023 mb)
E 4.6 mph
(E 7 kph)
- 5SM
07:10
Overcast
Drizzle
61°F / 16°C 59°F / 15°C 94% 30.21 in
(1023 mb)
E 8.1 mph
(E 13 kph)
- 5SM
06:50
Overcast
Rain
61°F / 16°C 59°F / 15°C 94% 30.21 in
(1023 mb)
E 9.2 mph
(E 15 kph)
0.03 in
(0.76 mm)
4SM
06:30
Overcast
Light Rain
61°F / 16°C 59°F / 15°C 94% 30.21 in
(1023 mb)
E 8.1 mph
(E 13 kph)
- 10SM
06:10
Overcast
61°F / 16°C 59°F / 15°C 94% 30.21 in
(1023 mb)
E 4.6 mph
(E 7 kph)
- 7SM
05:50
Overcast
Drizzle
61°F / 16°C 59°F / 15°C 94% 30.21 in
(1023 mb)
E 4.6 mph
(E 7 kph)
- 7SM
05:30
Overcast
61°F / 16°C 59°F / 15°C 94% 30.18 in
(1022 mb)
E 5.8 mph
(E 9 kph)
- 7SM
05:10
Overcast
61°F / 16°C 59°F / 15°C 94% 30.18 in
(1022 mb)
E 3.5 mph
(E 6 kph)
- 7SM
04:50
Overcast
61°F / 16°C 59°F / 15°C 94% 30.18 in
(1022 mb)
E 4.6 mph
(E 7 kph)
- 7SM
04:30
Overcast
Fog And Mist
61°F / 16°C 59°F / 15°C 94% 30.18 in
(1022 mb)
E 4.6 mph
(E 7 kph)
- 5SM
04:10
Overcast
Fog And Mist
61°F / 16°C 59°F / 15°C 94% 30.18 in
(1022 mb)
E 5.8 mph
(E 9 kph)
- 5SM
03:50
Overcast
Fog And Mist
61°F / 16°C 59°F / 15°C 94% 30.18 in
(1022 mb)
ENE 4.6 mph
(ENE 7 kph)
- 5SM
03:30
Overcast
61°F / 16°C 57°F / 14°C 88% 30.18 in
(1022 mb)
E 4.6 mph
(E 7 kph)
- 7SM
03:10
Overcast
61°F / 16°C 57°F / 14°C 88% 30.18 in
(1022 mb)
E 5.8 mph
(E 9 kph)
- 7SM
02:50
Overcast
61°F / 16°C 57°F / 14°C 88% 30.18 in
(1022 mb)
ENE 4.6 mph
(ENE 7 kph)
- 7SM
02:30
Overcast
61°F / 16°C 57°F / 14°C 88% 30.18 in
(1022 mb)
ENE 5.8 mph
(ENE 9 kph)
- 7SM
02:10
Overcast
61°F / 16°C 57°F / 14°C 88% 30.18 in
(1022 mb)
ENE 5.8 mph
(ENE 9 kph)
- 7SM
01:50
Overcast
61°F / 16°C 57°F / 14°C 88% 30.18 in
(1022 mb)
E 5.8 mph
(E 9 kph)
- 7SM
01:30
Overcast
61°F / 16°C 57°F / 14°C 88% 30.18 in
(1022 mb)
E 5.8 mph
(E 9 kph)
- 7SM
01:10
Overcast
61°F / 16°C 57°F / 14°C 88% 30.18 in
(1022 mb)
ENE 5.8 mph
(ENE 9 kph)
- 7SM
00:50
Overcast
61°F / 16°C 57°F / 14°C 88% 30.18 in
(1022 mb)
E 8.1 mph
(E 13 kph)
- 10SM
00:30
Overcast
61°F / 16°C 57°F / 14°C 88% 30.18 in
(1022 mb)
ENE 4.6 mph
(ENE 7 kph)
- 10SM
00:10
Overcast
61°F / 16°C 57°F / 14°C 88% 30.18 in
(1022 mb)
E 6.9 mph
(E 11 kph)
- 10SM
Time Weather Temperature Dewpoint Humidity Pressure Winds Precip Visibility


Weather for websites

WeatherForYou.com, LLC is not responsible for any damages or problems caused by this service. Current weather conditions are obtained from the closest station including government and personal stations which may have varying degrees of accuracy. Weather forecasts are derived from the NOAA NDFD. Like all things, this site belongs to Jesus Christ... He just trusts us to maintain it. If you have any questions or comments email webmaster@weatherforyou.com

Copyright © 2016, WeatherForYou.com LLC. All rights reserved.